Regional Weather Roundup
Issued by NWS

Home | Current Version | Previous Version | Text Only | Print | Product List | Glossary On
Versions: 1 2 3 4 5 6 7 8 9 10 11 12 13 14 15 16 17 18 19 20 21 22 23 24 25 26 27 28 29 30 31 32 33 34 35 36 37 38 39 40 41 42 43 44 45 46 47 48 49 50
000
ASUS43 KLMK 031702
RWRKY
KENTUCKY REGIONAL WEATHER ROUNDUP
NATIONAL WEATHER SERVICE LOUISVILLE KY
100 PM EDT MON AUG 03 2015

NOTE "FAIR" INDICATES FEW OR NO CLOUDS BELOW 12,000 FEET
WITH NO SIGNIFICANT WEATHER AND/OR OBSTRUCTIONS TO VISIBILITY.

KYZ001>023-026-027-061>063-070>075-031800-
WESTERN AND SOUTH CENTRAL KENTUCKY

CITY           SKY/WX    TMP DP  RH WIND       PRES   REMARKS
PADUCAH        SUNNY     91  72  53 W9        29.91F HX  98
HENDERSON      SUNNY     90  72  55 SW8       29.88R HX  96
OWENSBORO      SUNNY     90  73  57 SW7       29.90S HX  98
HOPKINSVILLE   SUNNY     88  73  61 SW10      29.93S HX  95
BOWLING GREEN  MOSUNNY   89  70  53 W10       29.93F HX  94
GLASGOW        NOT AVBL
$$

KYZ024-025-028>034-038-045-046-053-031800-
NORTH CENTRAL KENTUCKY

CITY           SKY/WX    TMP DP  RH WIND       PRES   REMARKS
LOUISVILLE/SDF MOSUNNY   84  66  54 S9        29.88F
LOUISVILLE/LOU SUNNY     83  66  56 S14       29.89F
FORT KNOX      SUNNY     85  70  61 S8        29.89S
$$

KYZ035>037-039>044-047>052-055>060-089>105-031800-
NORTHEAST KENTUCKY

CITY           SKY/WX    TMP DP  RH WIND       PRES   REMARKS
LEXINGTON      SUNNY     82  65  56 S14G25    29.92F
COVINGTON      MOSUNNY   80  65  59 S15G25    29.89S
FRANKFORT      SUNNY     82  65  56 S14       29.90F
$$

KYZ054-064>069-076>088-106>120-031800-
SOUTHEAST KENTUCKY

CITY           SKY/WX    TMP DP  RH WIND       PRES   REMARKS
JACKSON        SUNNY     81  63  54 CALM      29.98S
LONDON         SUNNY     83  61  47 VRB3      29.98F
SOMERSET       NOT AVBL
MIDDLESBORO    SUNNY     83  58  41 CALM      29.99F
MONTICELLO     MOSUNNY   85  67  54 CALM      30.00F
$$



USA.gov is the U.S. government's official web portal to all federal, state and local government web resources and services.